Showing default

PE2_FLT1 (TYVAK-0261), 59105

Orbit data source: Space-Track

PE2_FLT1 (TYVAK-0261), 59105 is a payload satellite owned by Tyvak NSS (US) in SSO that was launched on Mon, 04 Mar 2024 UTC via an FALCON 9 launch vehicle from the Air Force Western Test Range (AFWTR). Payload-class satellites include a variety of spacecraft equipped with specific instruments for various scientific and technological missions. These include communications satellites like Starlink; space stations such as the ISS; scientific satellites like the Hubble; Earth observation satellites from companies like Planet Labs, Umbra, and HawkEye 360; GPS; miniature CubeSats for education and research; and military/defense satellites.

Loading next visibility...
Identifier
59105, 2024-043H
Orbit
SSO
Country
Flag of USUS
Related business
Manufacturer
Tyvak NSS
Mission
Operational Commercial Technology
Bus & Motor
CUBESAT 12U, Unknown motor
Mass
26 kg wet, 26 kg dry
Launch date (UTC)
2024-03-04 (2 years ago)
Launch vehicle
FALCON 9
Launch site
Air Force Western Test Range (AFWTR)
Object type
Payload
Rocket body
Debris
Shape & HBR
Box + 2 Pan, 0.7 m
Radar Cross Section
0.149 m², Medium (>0.1 m² and < 1m²)

Expand to show TLE details & history
Last TLE update: 2 days ago

TLE from 2 days ago
0 PE2_FLT1 (TYVAK-0261)
1 59105U 24043H   26171.32867097  .00001677  00000-0  14998-3 0  9997
2 59105  97.8394 301.9791 0006927  40.3168 319.8566 14.97226526125121
Epoch: 2026-06-20T07:53Z
TLE epoch observation values (Epoch: 2026-06-20T07:53:17.171Z)
Latitude
-0.00004°
Longitude
-84.88731°
Altitude
574.836 km
Speed
7.575 km/s
True Right ascension
20h 07m 54s
True Declination
0° 00' 00"
Sunlit
Object was in full shadow at epoch
Visualization orbit readout
Latitude
Unknown
Longitude
Unknown
Altitude
Unknown
Speed
Unknown
Apparent Right ascension
Unknown
Apparent Declination
Unknown
Sunlit
N/A
Visualization observer readout
Local Sidereal Time
23:26:54
Azimuth
Unknown
Elevation
Unknown
Doppler factor
Unknown
Orbital elements
Apogee altitude
577.3 km
Perigee altitude
567.671 km
Semi-major axis
6,950.623 km
Eccentricity
0.00069
Inclination
97.8394°
RAAN
301.9791°
Arg. of periapsis
40.3168°
True anomaly
319.80539°
Mean anomaly
319.8566°
Eccentric anomaly
319.831°
Mean motion
3.74548 °/min
Orbital period
96.12 mins
BSTAR
0.00014998
Loading maneuver chart data...
Computing Atmospheric mass density...
Loading historical data...
Loading historical data...
Loading historical data...
Loading historical data...
Loading historical data...
Loading historical data...
Loading historical data...

Documentation

Showing up to 5 results
|